Weather in Shirokovskoye

Russia / Kurgan Oblast     56°20′53″N   63°03′15″E
temp.,
°C
wind,
m/s
gust,
m/s
humid.,
%
clouds,
%
prec.,
mm/h
press.,
hPa
HPBL,
m
9 march, tue
tue923:00−7sw7168397 0.3 1004442
02:00−8sw6148649 0.0 1004281
05:00−8sw5138973 0.0 1005273
08:00−9ssw499389 0.0 1004178
11:00−4sw479594 0.6 1004551
14:00−4wnw3589100 2.3 1004540
17:00−4wnw478998 2.9 1007383
20:00−10w228737 0.0 101021
10 march, wed
wed1023:00−11w238662 0.0 101121
02:00−13nne1188100 0.0 101021
05:00−13e2389100 0.0 100922
08:00−11e3593100 0.0 1008104
11:00−8e5794100 0.0 1006330
14:00−7ene6995100 0.8 1003470
17:00−7ene71294100 2.2 1001617
20:00−7ene81394100 1.5 1000620
11 march, thu
thu1123:00−10ne81493100 2.7 999538
02:00−13nne81394100 1.0 1000507
05:00−15nne81294100 2.3 1001498
08:00−17n71293100 0.3 1003528
11:00−17n71192100 0.6 1004546
14:00−16nnw71090100 0.1 1006628
17:00−15nnw6987100 0.2 1008757
20:00−18nnw499198 0.0 1011362
12 march, fri
fri1223:00−19nw389599 0.1 1013252
02:00−23nw3496100 0.0 101456
05:00−27nw349587 0.0 101648
08:00−28wnw33950 0.0 101830
11:00−21w34870 0.0 1019243
14:00−16sw579055 0.0 1018433
17:00−13sw479276 0.1 1017396
20:00−12w4118998 0.1 1018256
13 march, sat
sat1323:00−14w5108966 0.1 1020188
02:00−14wsw511890 0.0 1020207
05:00−15wsw511900 0.0 1022200
08:00−14w5139027 0.0 1024359
11:00−9wnw6118625 0.0 1025582
14:00−6wnw698574 0.0 1026632
17:00−5w498757 0.0 1026556
20:00−9w498887 0.0 1027167